"Pseudo-MPEC" for ZTF10FR

Created 2026 Aug 17 18:35:34 UT using Find_Orb

Click here for an explanation of pseudo-MPECs

 
 Astrometry: 
     ZTF10FR*0C2026 08 16.45258703 40 01.036+25 04 31.59   ~8GN5 19.00gUNEOCPI41
     ZTF10FR 0C2026 08 16.45293503 39 59.598+25 04 21.19   ~8GN5 19.00gUNEOCPI41
     ZTF10FR 0C2026 08 16.47598603 38 24.520+24 52 41.39   ~8GN5 18.35RUNEOCPI41
     ZTF10FR 0C2026 08 16.47633303 38 23.091+24 52 30.58   ~8GN5 18.35RUNEOCPI41
     ZTF10FR 0C2026 08 16.48893603 37 31.101+24 46 06.40   ~8GN5 18.52iUNEOCPI41
     ZTF10FR 0C2026 08 16.48928303 37 29.602+24 45 55.37   ~8GN5 18.52iUNEOCPI41
     ZTF10FR KC2026 08 17.02736403 03 40.26 +20 00 48.1    ~8H15 18.0 GXNEOCPL01
     ZTF10FR KC2026 08 17.02802803 03 37.86 +20 00 27.6    ~8H15 17.9 GXNEOCPL01
     ZTF10FR KC2026 08 17.02872503 03 35.40 +20 00 05.5    ~8H15 18.1 GXNEOCPL01
     ZTF10FR KC2026 08 17.02942503 03 32.86 +19 59 43.2    ~8H15 18.1 GXNEOCPL01
     ZTF10FR KC2026 08 17.03009903 03 30.49 +19 59 22.2    ~8H15 18.0 GXNEOCPL01
     ZTF10FR KC2026 08 17.03079303 03 28.00 +19 59 00.3    ~8H15 18.4 GXNEOCPL01
     ZTF10FR KC2026 08 17.32728202 46 46.903+17 23 07.40   ~8H8K 18.3 VZNEOCPH36
     ZTF10FR KC2026 08 17.33074902 46 35.484+17 21 19.98   ~8H8K 18.2 VZNEOCPH36
     ZTF10FR KC2026 08 17.33422102 46 24.053+17 19 32.74   ~8H8K 18.1 VZNEOCPH36
     ZTF10FR KC2026 08 17.33769402 46 12.641+17 17 45.17   ~8H8K 18.1 VZNEOCPH36

Station data:
(H36) Sandlot Observatory, Scranton  (N38.797718 W95.706550)  US/Kansas.
   Observer G. Hug. 0.56-m reflector + CCD.
(I41) Palomar Mountain--ZTF  (N33.357336 W116.859780)  US/California.
   Observers B. T. Bolin, Z. T. F. Collaboration. Measurers B. T. Bolin,
   Z.-Y. Lin, F. J. Masci. 1.2-m f/2.4 Schmidt.
(L01) Višnjan Observatory, Tičan  (N45.290897 E13.749300)  Croatia.
   Observers K. Korlević, L. Poropat. Measurer K. Korlevic. 1.0-m f/2.9
   reflector + CCD.

Orbital elements:  ZTF10FR
   Perihelion 2026 Jul 2.618579 +/- 0.0957 TT = 14:50:45.2 (JD 2461224.118579)
Epoch 2026 Aug 17.0 TT = JDT 2461269.5   Earth MOID: 0.0022   Ve: 0.0944
M  15.581193945 +/- 0.24            Ma: 0.0518                   AutoNEOCP
n   0.343338609 +/- 0.00459         Peri.  109.237467 +/- 0.013
a   2.019858533 +/- 0.018           Node   146.178662 +/- 0.009
e   0.62481609 +/- 0.00383          Incl.    7.458876 +/- 0.037
P   2.87066                H 22.95  G  0.15   U  9.1
q 0.757818402 +/- 0.000984    Q 3.281898663 +/- 0.0369    (J2000 ecliptic)
From 16 observations 2026 Aug. 16-17 (21.2 hr); mean residual 0".39
Residuals in arcseconds: 
260816 I41  .95-  .41-    260817 L01  .09+  .27-    260817 H36  .03-  .07+    
260816 I41  .94-  .27-    260817 L01  .27-  .15+    260817 H36  .05-  .05-    
260816 I41  .85+  .17+    260817 L01  .18+  .00     260817 H36  .08-  .14+    
260816 I41  .89+  .06-    260817 L01  .34-  .24-    260817 H36  .13+  .03+    
260816 I41  .59+  .58+    260817 L01  .22+  .01-    
260816 I41  .36-  .16+    260817 L01  .09+  .04-    

Ephemerides (geocentric):
Date (UTC) HH   RA             Dec           delta  r     elong  mag " sig PA
---- --------  ------------   ------------  ------ ------ -----  --- --------
2026 08 17 19  02 23 14.071   +13 30 15.11  .03378 1.0225 106.6 18.1 1.55 117
2026 08 17 20  02 21 18.069   +13 10 00.84  .03395 1.0229 107.2 18.1 1.58 116
2026 08 17 21  02 19 23.601   +12 49 56.18  .03414 1.0233 107.8 18.1 1.61 115
2026 08 17 22  02 17 30.654   +12 30 01.36  .03432 1.0237 108.3 18.1 1.64 114
2026 08 17 23  02 15 39.211   +12 10 16.60  .03451 1.0240 108.9 18.1 1.68 113
2026 08 18 00  02 13 49.258   +11 50 42.07  .03470 1.0244 109.5 18.1 1.71 112
2026 08 18 01  02 12 00.777   +11 31 17.95  .03490 1.0248 110.1 18.1 1.75 111
2026 08 18 02  02 10 13.752   +11 12 04.40  .03510 1.0252 110.6 18.1 1.78 110
2026 08 18 03  02 08 28.166   +10 53 01.56  .03530 1.0256 111.2 18.1 1.82 109
2026 08 18 04  02 06 44.003   +10 34 09.54  .03550 1.0260 111.7 18.1 1.86 108
2026 08 18 05  02 05 01.246   +10 15 28.47  .03571 1.0263 112.2 18.1 1.89 107
2026 08 18 06  02 03 19.876   +09 56 58.44  .03592 1.0267 112.8 18.1 1.93 106
2026 08 18 07  02 01 39.876   +09 38 39.53  .03613 1.0271 113.3 18.1 1.97 105
2026 08 18 08  02 00 01.230   +09 20 31.80  .03635 1.0275 113.8 18.1 2.01 104
2026 08 18 09  01 58 23.919   +09 02 35.33  .03657 1.0279 114.3 18.1 2.05 103
2026 08 18 10  01 56 47.925   +08 44 50.15  .03679 1.0282 114.9 18.1 2.09 102
2026 08 18 11  01 55 13.232   +08 27 16.29  .03702 1.0286 115.4 18.1 2.13 101
2026 08 18 12  01 53 39.820   +08 09 53.79  .03724 1.0290 115.9 18.1 2.18 100
2026 08 18 13  01 52 07.673   +07 52 42.64  .03747 1.0294 116.3 18.1 2.22 100
2026 08 18 14  01 50 36.773   +07 35 42.87  .03771 1.0298 116.8 18.1 2.26  99
2026 08 18 15  01 49 07.102   +07 18 54.45  .03794 1.0302 117.3 18.1 2.30  98
2026 08 18 16  01 47 38.642   +07 02 17.38  .03818 1.0305 117.8 18.1 2.35  97
2026 08 18 17  01 46 11.376   +06 45 51.64  .03842 1.0309 118.3 18.1 2.39  97
2026 08 18 18  01 44 45.287   +06 29 37.18  .03866 1.0313 118.7 18.1 2.44  96
2026 08 18 19  01 43 20.357   +06 13 33.98  .03890 1.0317 119.2 18.1 2.48  95
2026 08 18 20  01 41 56.569   +05 57 42.00  .03915 1.0321 119.6 18.1 2.52  94
2026 08 18 21  01 40 33.907   +05 42 01.17  .03940 1.0325 120.1 18.1 2.57  94
2026 08 18 22  01 39 12.352   +05 26 31.44  .03965 1.0328 120.5 18.1 2.61  93
2026 08 18 23  01 37 51.889   +05 11 12.76  .03990 1.0332 121.0 18.1 2.66  93
2026 08 19 00  01 36 32.500   +04 56 05.05  .04016 1.0336 121.4 18.1 2.70  92
2026 08 19 01  01 35 14.170   +04 41 08.24  .04042 1.0340 121.8 18.1 2.75  91
2026 08 19 02  01 33 56.881   +04 26 22.25  .04068 1.0344 122.2 18.1 2.79  91
2026 08 19 03  01 32 40.618   +04 11 47.01  .04094 1.0348 122.7 18.1 2.84  90
2026 08 19 04  01 31 25.366   +03 57 22.42  .04120 1.0352 123.1 18.1 2.88  90
2026 08 19 05  01 30 11.107   +03 43 08.41  .04147 1.0355 123.5 18.1 2.93  89
2026 08 19 06  01 28 57.826   +03 29 04.87  .04173 1.0359 123.9 18.1 2.97  89
2026 08 19 07  01 27 45.509   +03 15 11.72  .04200 1.0363 124.3 18.1 3.02  88
2026 08 19 08  01 26 34.140   +03 01 28.86  .04227 1.0367 124.7 18.1 3.06  88
2026 08 19 09  01 25 23.704   +02 47 56.18  .04255 1.0371 125.1 18.1 3.11  87
2026 08 19 10  01 24 14.186   +02 34 33.60  .04282 1.0375 125.4 18.1 3.15  87
2026 08 19 11  01 23 05.571   +02 21 20.99  .04310 1.0378 125.8 18.1 3.20  87
2026 08 19 12  01 21 57.845   +02 08 18.27  .04337 1.0382 126.2 18.1 3.24  86
2026 08 19 13  01 20 50.995   +01 55 25.32  .04365 1.0386 126.6 18.1 3.28  86
2026 08 19 14  01 19 45.005   +01 42 42.04  .04394 1.0390 126.9 18.1 3.33  85
2026 08 19 15  01 18 39.863   +01 30 08.32  .04422 1.0394 127.3 18.1 3.37  85
2026 08 19 16  01 17 35.554   +01 17 44.04  .04450 1.0398 127.7 18.1 3.41  85
2026 08 19 17  01 16 32.066   +01 05 29.10  .04479 1.0402 128.0 18.2 3.46  84
2026 08 19 18  01 15 29.385   +00 53 23.39  .04508 1.0405 128.4 18.2 3.50  84